Regional Weather Roundup
Issued by NWS Upton, NY

Current Version | Previous Version | Graphics & Text | Print | Product List | Glossary Off
Versions: 1 2 3 4 5 6 7 8 9 10 11 12 13 14 15 16 17 18 19 20 21 22 23 24 25 26 27 28 29 30 31 32 33 34 35 36 37 38 39 40 41 42 43 44 45 46 47 48 49 50

000
ASUS41 KOKX 020608
RWROKX

REGIONAL WEATHER ROUNDUP
NATIONAL WEATHER SERVICE NEW YORK NY
200 AM EDT TUE JUN 02 2015

NOTE: "FAIR" INDICATES FEW OR NO CLOUDS BELOW 12,000 FEET WITH NO
SIGNIFICANT WEATHER AND/OR OBSTRUCTIONS TO VISIBILITY.

NYZ071-072-176-178-NJZ106-104-020700-
NEW YORK CITY METRO AREA


CITY           SKY/WX    TMP DP  RH WIND       PRES   REMARKS
CENTRAL PARK   LGT RAIN  51  48  89 NE9       30.16F
LAGUARDIA APRT LGT RAIN  50  46  87 NE12      30.12F
KENNEDY INTL   LGT RAIN  52  48  86 NE13      30.13F
NEWARK/LIBERTY LGT RAIN  51  49  92 NE15      30.11F FOG
BRNX BOT. GARD   N/A     48  46  93 N6        30.15F
TETERBORO      LGT RAIN  50  47  89 NE6       30.12F
$$

NYZ177-179-078>081-020700-
LONG ISLAND NEW YORK

CITY           SKY/WX    TMP DP  RH WIND       PRES   REMARKS
FARMINGDALE    CLOUDY    50  48  93 NE10      30.13F
ISLIP          LGT RAIN  50  48  93 NE12      30.11S
SHIRLEY        CLOUDY    50  48  93 VRB7      30.13F
WESTHAMPTON    LGT RAIN  51  50  96 NE9       30.13F
MONTAUK POINT    N/A     51  48  89 NE10G18   30.14F
$$

NYZ052-065-067-020700-
HUDSON VALLEY

CITY           SKY/WX    TMP DP  RH WIND       PRES   REMARKS
WHITE PLAINS   DRZL/FOG  48  46  93 E3        30.14S VSB 1
NEWBURGH       SHOWER    46  46 100 E12       30.16F FOG
MONTGOMERY     LGT RAIN  48  47  96 N7        30.15F
POUGHKEEPSIE   LGT RAIN  49  46  90 N3        30.16F
ALBANY         LGT RAIN  50  47  89 SW3       30.17F
$$

NJZ001-105-106-008-010-013-015-019>022-104-020700-
NEW JERSEY

CITY           SKY/WX    TMP DP  RH WIND       PRES   REMARKS
NEWARK/LIBERTY LGT RAIN  51  49  92 NE15      30.11F FOG
TETERBORO      LGT RAIN  50  47  89 NE6       30.12F
CALDWELL       LGT RAIN  49  46  90 NE7       30.13F FOG
MORRISTOWN     LGT RAIN  52  48  87 NE7       30.13F
SOMERVILLE     LGT RAIN  53  49  86 NE6       30.10F
SUSSEX         CLOUDY    49  46  90 NE9       30.15S
ANDOVER          N/A     50  49  96 NE8       30.13F
TRENTON        CLOUDY    53  51  93 NE9       30.09F
MILLVILLE      HVY RAIN  61  60  97 NE8       30.05F FOG
ATLANTIC CITY  LGT RAIN  60  58  92 E10       30.07R
WRIGHTSTOWN    CLOUDY    54  54 100 NE9       30.07R
TOMS RIVER     CLOUDY   N/A N/A N/A E9        30.09S
BELMAR         CLOUDY    52  45  76 NE12G18   30.09F
$$

PAZ047>061-062-071-020700-
EASTERN PENNSYLVANIA

CITY           SKY/WX    TMP DP  RH WIND       PRES   REMARKS
PHILADELPHIA   LGT RAIN  57  54  89 E9        30.09R
ALLENTOWN      LGT RAIN  53  51  93 NE9       30.10F FOG
SCRANTON       CLOUDY    53  50  89 E5        30.12R
$$

CTZ002-004>006-009-010-012-RIZ004-006-007-MAZ004-011-015-020700-
SOUTHERN NEW ENGLAND
 IN CT

CITY           SKY/WX    TMP DP  RH WIND       PRES   REMARKS
BRADLEY INTL   LGT RAIN  48  45  89 N9        30.18F FOG
HARTFORD       RAIN      48  46  93 N9        30.18F
DANBURY        LGT RAIN  47  43  86 NE8       30.16F
WTRBRY/OXFORD  CLOUDY    46  39  76 NE9G18    30.16S
BRIDGEPORT     LGT RAIN  50  47  89 NE12      30.15F FOG
MERIDEN        LGT RAIN  49  45  86 N6        30.16F
NEW HAVEN      LGT RAIN  49  47  93 NE9       30.15F
CHESTER        HVY RAIN  46  46 100 NE6       30.16S
GROTON         LGT RAIN  49  46  90 NE12      30.14F
WILLIMANTIC    RAIN      48  45  89 NE10      30.17F FOG

 IN RI

CITY           SKY/WX    TMP DP  RH WIND       PRES   REMARKS
PROVIDENCE     CLOUDY    48  46  93 N12       30.17F
BLOCK ISLAND   CLOUDY    50  46  87 NE14G20   30.15S
WESTERLY       LGT RAIN  48  47  96 N10       30.15F

 IN MA

CITY           SKY/WX    TMP DP  RH WIND       PRES   REMARKS
BOSTON         RAIN      47  46  97 NE14      30.21F FOG
WORCESTER      RAIN      45  42  89 NE12G18   30.18F
WESTFIELD      LGT RAIN  47  45  93 N7        30.19F FOG
PROVINCETOWN   CLOUDY    48  45  87 NE12      30.18S
NANTUCKET      CLOUDY    53  51  93 NE10      30.11F FOG
$$

ANZ330-335-338-340-345-350-353-355-020700-
COASTAL MARINE OBSERVATIONS


STATION/POSITION TIME  SKY/WX   TEMP    WIND        PRES    VSBY  WAVE
                                AIR SEA DIR/SP/G                  HT/PER
                 (UTC)          (F)     (DEG/KT/KT) (MB)    (MI)  (FT/S)
NY HARB ENTRANCE 0550            53 60   30/ 17/ 21 1018.7          6/ 7
4S FIRE IS       0503               53                N/A           5/ 6
20S FIRE ISLAND  0550            54 58   50/ 19/ 23 1018.4          7/ 7
GREAT SOUTH BAY  0500            52 67   50/ 16/ 19   N/A
23SW MTP         0550            53 57   40/ 17/ 21 1019.2          6/ 6
HUDSON CANYON    NOT AVBL
KINGS POINT      0500            50 57   50/  7/ 10 1020.3
CENTRAL LI SOUND NOT AVBL
EASTERN LI SOUND 0500            50      30/ 12/ 16   N/A
ROBBINS REEF     0500            51      50/ 15/ 19 1019.5
$$


>>>>>>>>>>>>>>>>>>>>>>>>>>>> KEY <<<<<<<<<<<<<<<<<<<<<<<<<<<
>                                                          <
>     SKY/WX - SKY CONDITION/PRESENT WEATHER               <
>     TMP    - TEMPERATURE IN FAHRENHEIT                   <
>     DP     - DEWPOINT IN FAHRENHEIT                      <
>     RH     - RELATIVE HUMIDITY IN PERCENT                <
>     WIND   - DIRECTION AND SPEED IN MPH                  <
>     PRES   - MEAN SEA LEVEL PRESSURE IN INCHES OF HG     <
>     WCI    - WIND CHILL INDEX                            <
>     VSB    - VISIBILITY IN MILES                         <
>     HX     - HEAT INDEX                                  <
>     TC     - TEMPERATURE IN CELSIUS                      <
>     VRB    - VARIABLE WIND DIRECTION                     <
>                                                          <
>>>>>>>>>>>>>>>>>>>>>>>>>>>> KEY <<<<<<<<<<<<<<<<<<<<<<<<<<<




USA.gov is the U.S. government's official web portal to all federal, state and local government web resources and services.